EW1042 Weather Reports


Display with metric or nautical units.
time (UTC)temp
F
wind
direction
speed
MPH
gust
MPH
rain 1hr
in
rain 24hr
in
rain mn
in
humidity
%
barometer
mb
20260505164513 62 289 14.0 26.0 0.00 0.03 0.02 70 1008.3
20260505163012 64 254 6.0 12.0 0.00 0.03 0.02 70 1007.7
20260505161612 63 208 7.0 17.0 0.00 0.03 0.02 71 1007.5
20260505153035 65 233 15.0 24.0 0.00 0.03 0.02 66 1007.8
20260505151517 66 241 14.0 31.0 0.00 0.03 0.02 64 1007.7
20260505130109 62 225 11.0 19.0 0.01 0.02 0.01 69 1007.2
20260505124541 64 232 9.0 18.0 0.00 0.01 0.00 65 1007.1
20260505123043 64 219 12.0 30.0 0.00 0.01 0.00 64 1007.1
20260505121534 63 260 10.0 27.0 0.00 0.01 0.00 67 1007.1
20260505120031 62 180 8.0 19.0 0.00 0.01 0.00 69 1007.2
20260505114530 61 194 8.0 20.0 0.00 0.01 0.00 69 1007.1
20260505113028 61 192 8.0 20.0 0.00 0.01 0.00 69 1007.0
20260505111535 61 218 9.0 19.0 0.00 0.01 0.00 69 1007.0
20260505101547 58 167 4.0 11.0 0.01 0.01 0.01 70 1006.6
20260505100048 59 165 5.0 12.0 0.01 0.01 0.01 71 1006.9
20260505094529 60 195 6.0 13.0 0.00 0.00 0.00 71 1006.8
20260505093027 59 184 6.0 16.0 0.00 0.00 0.00 71 1007.1
20260505091509 59 236 6.0 14.0 0.00 0.00 0.00 70 1007.5
20260505090009 60 183 7.0 16.0 0.00 0.00 0.00 70 1007.1
20260505084551 60 215 7.0 17.0 0.00 0.00 0.00 68 1007.2
20260505083050 61 164 6.0 18.0 0.00 0.00 0.00 67 1007.4
20260505081542 61 212 6.0 18.0 0.00 0.00 0.00 65 1007.5
20260505080036 61 215 9.0 18.0 0.00 0.00 0.00 63 1007.6
20260505074513 61 224 6.0 14.0 0.00 0.00 0.00 62 1007.6
20260505073013 61 190 7.0 16.0 0.00 0.00 0.00 60 1007.6
20260505071607 61 215 8.0 23.0 0.00 0.00 0.00 59 1007.5
20260505070105 61 205 8.0 21.0 0.00 0.00 0.00 58 1007.4
20260505064538 61 191 8.0 16.0 0.00 0.00 0.00 57 1007.2
20260505063036 61 224 7.0 12.0 0.00 0.00 0.00 57 1007.2
20260505061517 61 187 6.0 13.0 0.00 0.00 0.00 56 1007.3
20260505060016 61 202 6.0 13.0 0.00 0.00 0.00 54 1007.5
20260505054558 62 213 7.0 15.0 0.00 0.00 0.00 53 1007.7
20260505053104 62 169 10.0 21.0 0.00 0.00 0.00 52 1007.8
20260505051542 62 187 6.0 15.0 0.00 0.00 0.00 51 1007.7
20260505041504 61 203 5.0 13.0 0.00 0.03 0.00 50 1008.0
20260505040003 61 198 4.0 10.0 0.00 0.04 0.00 51 1008.0
20260505034543 59 220 5.0 12.0 0.00 0.04 0.00 53 1007.9
20260505033046 59 235 0.0 0.0 0.00 0.04 0.00 53 1008.0
20260505031522 59 237 0.0 0.0 0.00 0.04 0.00 54 1008.1
20260505030026 59 239 0.0 0.0 0.00 0.07 0.00 55 1008.4
20260505024502 60 240 0.0 0.0 0.00 0.07 0.00 54 1008.7
20260505023002 60 241 0.0 7.0 0.00 0.07 0.00 53 1008.8
20260505021545 60 229 0.0 3.0 0.00 0.07 0.00 55 1008.9
20260505020044 60 221 0.0 4.0 0.00 0.12 0.00 54 1008.9
20260505014526 62 167 2.0 5.0 0.00 0.12 0.00 51 1008.9
20260505013026 62 154 2.0 6.0 0.00 0.12 0.00 51 1008.9
20260505011510 62 155 2.0 6.0 0.00 0.12 0.00 50 1009.0
20260505010008 63 173 3.0 8.0 0.00 0.12 0.00 51 1008.9
20260505004608 63 167 3.0 5.0 0.00 0.12 0.00 50 1008.9
20260505003050 63 182 4.0 7.0 0.00 0.12 0.00 48 1008.7
20260505001549 64 194 0.0 3.0 0.00 0.12 0.00 47 1008.9
20260505000033 65 205 2.0 6.0 0.00 0.12 0.00 46 1008.7
20260504234530 65 199 3.0 7.0 0.00 0.12 0.00 44 1008.7
20260504233013 66 221 3.0 9.0 0.00 0.12 0.00 44 1008.7
20260504231511 66 232 0.0 12.0 0.00 0.12 0.00 44 1008.8
20260504230053 66 250 6.0 10.0 0.00 0.12 0.00 44 1008.9
20260504224552 67 227 8.0 16.0 0.00 0.12 0.00 43 1008.9
20260504223032 67 200 9.0 14.0 0.00 0.12 0.00 44 1009.0
20260504221529 67 250 5.0 14.0 0.00 0.12 0.00 47 1009.1
20260504220012 67 247 7.0 15.0 0.00 0.12 0.00 47 1009.2
20260504214610 67 228 11.0 21.0 0.00 0.12 0.00 47 1009.3
20260504213056 66 248 11.0 21.0 0.00 0.12 0.00 47 1009.3
20260504211554 66 256 16.0 22.0 0.00 0.12 0.00 48 1009.4
20260504210031 66 252 12.0 22.0 0.00 0.12 0.00 48 1009.5
20260504204529 65 243 16.0 23.0 0.00 0.12 0.00 48 1009.7
20260504203013 66 252 15.0 28.0 0.00 0.12 0.00 47 1009.7
20260504201508 66 235 15.0 26.0 0.00 0.12 0.00 48 1009.8
20260504200055 66 229 8.0 25.0 0.00 0.12 0.00 49 1010.1
20260504194548 65 257 19.0 32.0 0.00 0.12 0.00 48 1010.1
20260504193027 65 205 13.0 22.0 0.00 0.12 0.00 49 1010.2
20260504191538 64 215 10.0 23.0 0.00 0.12 0.00 50 1010.4
20260504190014 64 202 12.0 25.0 0.00 0.12 0.00 51 1010.3
20260504184514 63 184 10.0 19.0 0.00 0.12 0.00 51 1010.3
20260504183020 63 360 16.0 24.0 0.00 0.12 0.00 51 1010.6
20260504181508 62 223 11.0 22.0 0.00 0.12 0.00 52 1010.7
20260504180005 62 222 11.0 19.0 0.00 0.12 0.00 55 1010.7
20260504174503 61 267 10.0 19.0 0.00 0.12 0.00 56 1010.9
20260504173106 61 226 8.0 19.0 0.00 0.12 0.00 57 1011.1
20260504171558 59 250 12.0 21.0 0.00 0.12 0.00 57 1011.3